St. Joseph, KS

5:26 AM CDT on September 18, 2019 (GMT -0500)
Rosecrans Memorial

Weather History for KSTJ - July, 2019

Change the Weather History Date:

Sunday, July 14, 2019

  Actual Average Record
Temperature  
Mean Temperature 81 °F 77 °F  
Max Temperature 92 °F 87 °F 106 °F (1936)
Min Temperature 69 °F 67 °F 49 °F (1967)
Degree Days  
Heating Degree Days 0 0  
Month to date heating degree days 0 0  
Since 1 June heating degree days 1 8  
Since 1 July heating degree days 0 0  
Cooling Degree Days 16 12  
Month to date cooling degree days 208 166  
Year to date cooling degree days 602 546  
Since 1 June cooling degree days 501 433  
Growing Degree Days 30 (Base 50)    
Moisture  
Dew Point 70 °F    
Average Humidity 70    
Maximum Humidity 90    
Minimum Humidity 49    
Precipitation  
Precipitation 0.00 in 0.18 in 1.03 in (1958)
Month to date precipitation 0.22 2.15  
Year to date precipitation 21.49 19.28  
Sea Level Pressure  
Sea Level Pressure 30.01 in    
Wind  
Wind Speed 6 mph (SSE)    
Max Wind Speed 14 mph    
Max Gust Speed 20 mph    
Visibility 9 miles    
Events      
T = Trace of Precipitation, MM = Missing Value Source: NWS Daily Summary

Daily Weather History Graph

Daily Weather History Graph

Search for Another Location

Airport or City:

Astronomy

Jul. 14, 2019 Rise Set
Actual Time 6:03 AM CDT 8:47 PM CDT
Civil Twilight 5:31 AM CDT 9:19 PM CDT
Nautical Twilight 4:51 AM CDT 9:58 PM CDT
Astronomical Twilight 4:06 AM CDT 10:43 PM CDT
Moon 7:10 PM CDT (7/14) 4:05 AM CDT (7/14)
Length of Visible Light 15h 47m
Length of Day
14h 44m
Waxing Gibbous, 95% of the Moon is Illuminated
Jul 14
Waxing Gibbous
Jul 16
Full
Jul 24
Last Quarter
Jul 31
New
Aug 7
First Quarter

Hourly Weather History & Observations

Time (CDT) Temp. Heat Index Dew Point Humidity Pressure Visibility Wind Dir Wind Speed Gust Speed Precip Events Conditions
12:53 AM 75.0 °F - 71.1 °F 87% 30.03 in 10.0 mi West 3.5 mph - N/A   Clear
1:53 AM 75.0 °F - 69.1 °F 82% 30.02 in 10.0 mi South 6.9 mph - N/A   Clear
2:53 AM 73.9 °F - 68.0 °F 82% 30.03 in 10.0 mi SSE 4.6 mph - N/A   Clear
3:53 AM 72.0 °F - 68.0 °F 87% 30.03 in 8.0 mi Calm Calm - N/A   Clear
4:53 AM 70.0 °F - 66.9 °F 90% 30.03 in 8.0 mi Calm Calm - N/A   Clear
5:53 AM 70.0 °F - 66.9 °F 90% 30.04 in 8.0 mi Calm Calm - N/A   Clear
6:53 AM 71.1 °F - 68.0 °F 90% 30.05 in 5.0 mi North 3.5 mph - N/A   Clear
7:53 AM 75.9 °F - 71.1 °F 85% 30.05 in 7.0 mi SSE 3.5 mph - N/A   Clear
8:53 AM 80.1 °F 82.9 °F 69.1 °F 69% 30.06 in 8.0 mi Calm Calm - N/A   Clear
9:53 AM 84.0 °F 87.0 °F 68.0 °F 58% 30.06 in 10.0 mi Calm Calm - N/A   Clear
11:53 AM 88.0 °F 92.1 °F 69.1 °F 53% 30.04 in 10.0 mi Calm Calm - N/A   Clear
12:53 PM 89.1 °F 93.7 °F 69.1 °F 52% 30.04 in 9.0 mi SSE 8.1 mph - N/A   Clear
1:53 PM 89.1 °F 93.7 °F 69.1 °F 52% 30.02 in 10.0 mi South 5.8 mph - N/A   Clear
2:53 PM 91.0 °F 96.6 °F 70.0 °F 50% 30.01 in 10.0 mi South 9.2 mph - N/A   Clear
3:53 PM 89.1 °F 96.0 °F 72.0 °F 57% 30.00 in 10.0 mi South 9.2 mph - N/A   Partly Cloudy
4:53 PM 91.0 °F 99.3 °F 73.0 °F 55% 29.99 in 10.0 mi SSE 8.1 mph - N/A   Partly Cloudy
5:53 PM 91.0 °F 98.2 °F 72.0 °F 53% 29.97 in 10.0 mi South 9.2 mph - N/A   Clear
6:53 PM 90.0 °F 96.9 °F 72.0 °F 55% 29.96 in 10.0 mi SSE 9.2 mph - N/A   Partly Cloudy
7:53 PM 88.0 °F 95.6 °F 73.0 °F 61% 29.95 in 10.0 mi SSE 8.1 mph - N/A   Clear
8:34 PM 86.0 °F 92.2 °F 72.0 °F 63% 29.97 in 10.0 mi SSE 11.5 mph - N/A   Partly Cloudy
8:53 PM 84.0 °F 90.2 °F 73.0 °F 69% 29.95 in 10.0 mi SSE 9.2 mph - N/A   Clear
9:53 PM 84.0 °F 89.6 °F 72.0 °F 67% 29.97 in 10.0 mi South 8.1 mph - N/A   Mostly Cloudy
10:53 PM 81.0 °F 84.9 °F 71.1 °F 72% 29.99 in 10.0 mi SSE 8.1 mph - N/A   Mostly Cloudy
11:53 PM 79.0 °F - 70.0 °F 74% 29.99 in 10.0 mi SSE 9.2 mph - N/A   Clear